EW6604 Weather Reports


time (UTC)temp
C
wind
direction
speed
KPH
gust
KPH
rain 1hr
cm
rain 24hr
cm
rain mn
cm
humidity
%
barometer
mb
20190318230224 16 220 14.5 19.3 0.00 0.00 0.00 51 1020.0
20190318223221 17 219 14.5 20.9 0.00 0.00 0.00 51 1020.0
20190318220211 17 217 16.1 24.1 0.00 0.00 0.00 52 1019.8
20190318213224 17 217 22.5 27.4 0.00 0.00 0.00 51 1019.7
20190318210211 17 212 19.3 27.4 0.00 0.00 0.00 52 1019.5
20190318203221 17 212 22.5 29.0 0.00 0.00 0.00 51 1019.5
20190318200211 18 216 16.1 22.5 0.00 0.00 0.00 53 1019.7
20190318193213 18 216 17.7 25.7 0.00 0.00 0.00 52 1019.7
20190318190224 18 212 20.9 29.0 0.00 0.00 0.00 52 1019.9
20190318183215 18 217 24.1 30.6 0.00 0.00 0.00 52 1020.3
20190318180226 18 217 19.3 29.0 0.00 0.00 0.00 51 1020.7
20190318173218 18 219 19.3 24.1 0.00 0.03 0.00 52 1020.9
20190318170228 18 218 19.3 27.4 0.00 0.03 0.00 51 1021.4
20190318163220 17 217 20.9 25.7 0.00 0.03 0.00 51 1021.8
20190318160228 17 210 20.9 30.6 0.00 0.03 0.00 52 1021.7
20190318153214 17 214 27.4 40.2 0.00 0.03 0.00 51 1021.4
20190318150222 17 219 22.5 29.0 0.00 0.03 0.00 50 1021.3
20190318143214 16 212 4.8 14.5 0.00 0.03 0.00 37 1021.0
20190318140229 15 211 12.9 20.9 0.00 0.03 0.00 30 1020.9
20190318133224 14 211 17.7 24.1 0.00 0.03 0.00 23 1020.7
20190318130230 14 211 16.1 20.9 0.00 0.03 0.00 10 1020.5
20190318123217 14 210 19.3 25.7 0.00 0.03 0.00 5 1020.0
20190318120229 14 211 17.7 20.9 0.00 0.03 0.00 5 1019.7
20190318113220 14 211 17.7 20.9 0.00 0.03 0.00 11 1019.6
20190318110231 14 211 17.7 24.1 0.00 0.03 0.00 8 1019.2
20190318103220 14 211 14.5 19.3 0.00 0.03 0.00 2 1019.1
20190318100211 14 211 14.5 17.7 0.00 0.03 0.00 1 1019.0
20190318093227 14 211 9.7 14.5 0.00 0.03 0.00 6 1018.9
20190318090217 14 211 12.9 25.7 0.00 0.03 0.00 1 1019.1
20190318083228 14 211 16.1 20.9 0.00 0.03 0.00 1 1018.9
20190318080218 14 211 22.5 27.4 0.00 0.03 0.00 1 1019.3
20190318073223 14 212 17.7 29.0 0.00 0.03 0.00 1 1019.5
20190318070218 15 213 17.7 20.9 0.00 0.03 0.00 1 1019.6
20190318063226 14 213 9.7 14.5 0.00 0.03 0.00 1 1019.7
20190318060219 15 213 20.9 30.6 0.00 0.03 0.00 1 1020.3
20190318053227 15 216 27.4 32.2 0.00 0.03 0.00 1 1020.4
20190318050226 15 218 19.3 24.1 0.00 0.03 0.00 1 1020.3
20190318043159 15 219 19.3 24.1 0.00 0.03 0.00 1 1020.9
20190318040216 14 219 19.3 24.1 0.00 0.03 0.00 1 1021.0
20190318033208 14 219 11.3 17.7 0.00 0.03 0.03 1 1021.1
20190318030216 13 219 8.0 16.1 0.00 0.03 0.03 1 1020.8
20190318023213 13 219 9.7 16.1 0.00 0.03 0.03 1 1020.6
20190318020205 14 219 14.5 19.3 0.00 0.03 0.03 1 1020.9
20190318013213 13 219 16.1 22.5 0.00 0.03 0.03 1 1020.7
20190318010204 13 219 17.7 24.1 0.00 0.03 0.03 1 1020.9
20190318003217 14 219 16.1 22.5 0.00 0.03 0.03 1 1020.5
20190318000211 14 219 16.1 22.5 0.00 0.03 0.03 1 1020.2
20190317233205 14 220 17.7 22.5 0.00 0.03 0.03 1 1020.3